#timestamp,LO_Frequency,Hit,StdDev 
1687154415.4,286046983.8,N
1687154435.2,286046987.2,N
1687154455.0,286046989.5,N
1687154455.9,286046989.5,N
1687154475.8,286046989.4,N
1687154495.6,286046989.7,N
1687154515.5,286046993.0,N
1687154535.3,286046993.1,N
1687154555.1,286046991.6,N
1687154575.9,286046988.7,Y
1687154595.7,286046997.3,P
1687154615.6,286046992.5,N
1687154635.4,286046989.8,P
1687154655.2,286046985.3,Y
1687154675.1,286046992.6,P
1687154676.0,286046992.6,P
1687154695.8,286046991.3,P
1687154715.7,286046990.3,Y
1687154735.5,286046999.2,P
1687154755.3,286046998.4,N
1687154775.2,286046998.1,N
1687154795.0,286046999.2,N
1687154795.9,286046999.2,N
1687154815.7,286046994.9,N
1687154835.6,286046995.8,N
1687154855.4,286046996.4,N
1687154875.3,286046994.0,N
1687154895.1,286046992.2,Y
1687154915.8,286046997.6,P
1687154935.7,286046995.3,P
1687154955.5,286046993.7,P
1687154975.4,286046993.6,Y
1687154995.2,286046995.3,P
1687155015.0,286046994.9,P
1687155015.9,286046994.9,P
1687155035.8,286046997.6,Y
1687155055.6,286046999.8,P
1687155075.5,286046999.1,N
1687155095.3,286046999.0,N
1687155115.1,286046997.9,N
1687155135.9,286046992.9,Y
1687155155.7,286046989.1,P
1687155175.6,286046986.6,N
1687155195.4,286046982.4,P
1687155215.2,286046982.7,N
1687155235.1,286046983.1,N
1687155236.0,286046983.1,Y
1687155255.8,286046997.4,P
1687155275.6,286046998.3,N
1687155295.5,286047004.6,N
1687155315.3,286047013.5,N
1687155335.2,286047012.5,N
1687155355.0,286047006.5,N
1687155355.9,286047006.5,N
1687155375.8,286047005.1,N
1687155395.6,286047007.6,N
1687155415.4,286047004.0,N
1687155435.3,286047000.1,N
1687155455.1,286046998.9,N
1687155475.8,286046998.0,N
1687155495.7,286046996.3,N
1687155515.5,286046993.2,N
1687155535.4,286046987.6,N
1687155555.2,286046989.3,N
1687155575.0,286046993.1,N
1687155575.9,286046993.1,N
1687155595.8,286046993.8,N
1687155615.6,286046997.6,N
1687155635.4,286046998.4,N
1687155655.3,286047003.7,N
1687155675.1,286047009.0,N
1687155695.9,286047009.5,N
1687155715.7,286047014.7,N
1687155735.5,286047018.4,N
1687155755.4,286047017.9,N
1687155775.2,286047014.1,N
1687155795.0,286047016.9,N
1687155795.9,286047016.9,N
1687155815.8,286047017.6,N
1687155835.6,286047019.3,N
1687155855.5,286047015.7,N
1687155875.3,286047016.9,N
1687155895.1,286047020.4,N
1687155915.9,286047019.2,N
1687155935.7,286047017.9,N
1687155955.5,286047013.8,N
1687155975.4,286047012.6,N
1687155995.2,286047017.0,N
1687156015.1,286047016.0,N
1687156016.0,286047016.0,N
1687156035.8,286047013.1,N
1687156055.6,286047010.5,N
1687156075.5,286047006.4,N
1687156095.3,286047004.9,N
1687156115.1,286046999.8,N
1687156135.9,286046998.8,N
1687156155.7,286046997.5,N
1687156175.6,286046994.2,N
1687156195.4,286046992.3,N
1687156215.2,286046993.1,N
1687156235.1,286046989.7,N
1687156236.0,286046989.7,N
1687156255.8,286046987.9,N
1687156275.7,286046986.0,N
1687156295.5,286046983.8,N
1687156315.3,286046986.6,N
1687156335.2,286046990.4,N
1687156355.9,286046996.1,N
1687156375.7,286046995.6,N
1687156395.6,286046997.2,N
1687156415.4,286046999.3,N
1687156435.2,286047000.8,N
1687156455.1,286047001.9,N
1687156456.0,286047001.9,N
1687156475.8,286047001.0,N
1687156495.7,286046995.8,N
1687156515.5,286046988.6,N
1687156535.3,286046986.8,N
1687156555.2,286046979.8,N
1687156575.0,286046974.7,N
1687156575.9,286046974.7,N
1687156595.8,286046973.2,Y
1687156615.6,286046980.4,P
1687156635.4,286046981.3,N
1687156655.3,286046983.8,N
1687156675.1,286046986.6,N
1687156695.8,286046991.1,N
1687156715.7,286046994.2,N
1687156735.5,286046996.2,N
1687156755.4,286046995.0,N
1687156775.2,286046994.8,N
1687156795.0,286046985.9,N
1687156795.9,286046985.9,N
1687156815.8,286046979.1,Y
1687156835.6,286046986.9,P
1687156855.5,286046989.6,P
1687156875.3,286046986.0,P
1687156895.2,286046982.1,Y
1687156915.9,286046989.1,P
1687156935.7,286046987.0,P
1687156955.6,286046987.5,P
1687156975.4,286046985.3,Y
1687156995.3,286046991.8,P
1687157015.1,286046992.6,P
1687157035.8,286046989.4,P
1687157055.7,286046989.2,Y
1687157075.5,286046998.2,P
1687157095.4,286046998.5,N
1687157115.2,286047002.3,N
1687157135.0,286047003.8,N
1687157135.9,286047003.8,N
1687157155.8,286047005.7,N
1687157175.6,286047002.5,N
1687157195.4,286047000.6,N
1687157215.3,286046997.4,N
1687157235.1,286046995.7,N
1687157255.9,286046999.4,N
1687157275.7,286046999.5,N
1687157295.5,286046994.9,N
1687157315.4,286046997.4,N
1687157335.2,286046998.3,N
1687157355.1,286046998.8,N
1687157356.0,286046998.8,N
1687157375.8,286046999.3,N
1687157395.6,286047002.5,N
1687157415.5,286047005.5,N
1687157435.3,286047003.0,N
1687157455.1,286047001.7,N
1687157475.9,286046994.3,N
1687157495.7,286046985.9,Y
1687157515.6,286046978.4,P
1687157535.4,286046972.4,N
1687157555.2,286046965.7,N
1687157575.1,286046965.9,N
1687157576.0,286046965.9,N
1687157595.8,286046971.7,N
1687157615.7,286046973.0,N
1687157635.5,286046972.6,N
1687157655.3,286046968.2,Y
1687157675.2,286046989.4,P
1687157695.0,286046983.9,N
1687157695.9,286046983.9,N
1687157715.7,286046980.9,Y
1687157735.6,286047001.1,P
1687157755.4,286047004.2,N
1687157775.3,286047004.7,N
1687157795.1,286047006.1,N
1687157796.0,286047006.1,N
1687157815.8,286047003.5,N
1687157835.7,286047004.4,N
1687157855.5,286047000.6,N
1687157875.3,286046996.1,N
1687157895.2,286046989.0,N
1687157915.0,286046982.6,N
1687157915.9,286046982.6,N
1687157935.8,286046977.7,N
1687157955.6,286046973.5,N
1687157975.4,286046968.3,N
1687157995.3,286046963.4,N
